TimeEET,TemperatureF,Dew PointF,Humidity,Sea Level PressureIn,VisibilityMPH,Wind Direction,Wind SpeedMPH,Gust SpeedMPH,PrecipitationIn,Events,Conditions,WindDirDegrees,DateUTC
12:00 AM,82.4,53.6,37,29.83,-9999.0,North,8.1,-,N/A,,Clear,360,2012-10-05 22:00:00
1:00 AM,82.4,48.2,30,29.83,-9999.0,NW,4.6,-,N/A,,Clear,310,2012-10-05 23:00:00
2:00 AM,78.8,46.4,32,29.83,-9999.0,NW,5.8,-,N/A,,Clear,320,2012-10-06 00:00:00
3:00 AM,78.8,59.0,51,29.83,-9999.0,North,8.1,-,N/A,,Clear,10,2012-10-06 01:00:00
4:00 AM,78.8,60.8,54,29.83,-9999.0,North,8.1,-,N/A,,Clear,360,2012-10-06 02:00:00
5:00 AM,78.8,64.4,61,29.86,-9999.0,North,9.2,-,N/A,,Clear,360,2012-10-06 03:00:00
6:00 AM,77.0,62.6,61,29.86,6.2,North,10.4,-,N/A,,Partly Cloudy,360,2012-10-06 04:00:00
7:00 AM,80.6,62.6,54,29.86,-9999.0,North,8.1,-,N/A,,Clear,360,2012-10-06 05:00:00
8:00 AM,84.2,60.8,45,29.89,-9999.0,North,9.2,-,N/A,,Clear,10,2012-10-06 06:00:00
9:00 AM,87.8,59.0,38,29.89,-9999.0,NNE,8.1,-,N/A,,Clear,20,2012-10-06 07:00:00
10:00 AM,91.4,59.0,34,29.89,-9999.0,NE,6.9,-,N/A,,Clear,40,2012-10-06 08:00:00
11:00 AM,93.2,57.2,30,29.89,-9999.0,NE,8.1,-,N/A,,Clear,50,2012-10-06 09:00:00
1:00 PM,93.2,55.4,28,29.83,6.2,NE,10.4,-,N/A,,Partly Cloudy,40,2012-10-06 11:00:00
2:00 PM,91.4,57.2,31,29.83,6.2,NE,10.4,-,N/A,,Partly Cloudy,50,2012-10-06 12:00:00
3:00 PM,95.0,55.4,26,29.83,6.2,NE,5.8,-,N/A,,Scattered Clouds,40,2012-10-06 13:00:00
4:00 PM,93.2,53.6,26,29.83,6.2,NNE,5.8,-,N/A,,Scattered Clouds,30,2012-10-06 14:00:00
5:00 PM,89.6,53.6,29,29.83,6.2,North,3.5,-,N/A,,Scattered Clouds,10,2012-10-06 15:00:00
6:00 PM,86.0,50.0,29,29.83,6.2,North,3.5,-,N/A,,Scattered Clouds,10,2012-10-06 16:00:00
7:00 PM,82.4,57.2,42,29.86,6.2,Calm,Calm,-,N/A,,Scattered Clouds,0,2012-10-06 17:00:00
8:00 PM,82.4,57.2,42,29.86,6.2,Calm,Calm,-,N/A,,Scattered Clouds,0,2012-10-06 18:00:00
9:00 PM,80.6,53.6,39,29.86,6.2,Calm,Calm,-,N/A,,Scattered Clouds,0,2012-10-06 19:00:00
10:00 PM,80.6,55.4,42,29.86,6.2,WSW,2.3,-,N/A,,Scattered Clouds,250,2012-10-06 20:00:00
11:00 PM,78.8,51.8,39,29.86,6.2,NW,3.5,-,N/A,,Scattered Clouds,310,2012-10-06 21:00:00